THORAD DELTA 1 DEB, 8306

Orbit data source: Space-Track

THORAD DELTA 1 DEB, 8306 is space debris in SSO originally from a launch on Fri, 15 Nov 1974 UTC launched from the Air Force Western Test Range (AFWTR). Debris objects in space refer to the collection of defunct objects orbiting the Earth. Examples of debris include non-operational satellites, rocket bodies, and fragments generated from explosions, collisions, or faulty payload assembly.

Loading next visibility...
Identifier
8306, 1974-089BP
Orbit
SSO
Country
Flag of USUS
Related business
Manufacturer
Unknown
Mission
Spacecraft
Bus & Motor
Unknown
Mass
Unknown
Launch date (UTC)
1974-11-15 (52 years ago)
Launch vehicle
Unknown
Launch site
Air Force Western Test Range (AFWTR)
Object type
Payload
Rocket body
Debris
Shape & HBR
Unknown shape, 0.2 m
Radar Cross Section
Medium (>0.1 m² and <1 m²)

Expand to show TLE details & history
Last TLE update: 2 days ago

TLE from 2 days ago
0 THORAD DELTA 1 DEB
1  8306U 74089BP  26171.35184757  .00000231  00000-0  17577-2 0  9997
2  8306 101.9924 306.6790 0081116 127.9569 258.3707 12.51616060347354
Epoch: 2026-06-20T08:26Z
TLE epoch observation values (Epoch: 2026-06-20T08:26:39.630Z)
Latitude
24.85427°
Longitude
-94.17282°
Altitude
1,473.751 km
Speed
7.122 km/s
True Right ascension
20h 04m 14s
True Declination
24° 44' 07"
Sunlit
Object was in daylight at epoch
Visualization orbit readout
Latitude
Unknown
Longitude
Unknown
Altitude
Unknown
Speed
Unknown
Apparent Right ascension
Unknown
Apparent Declination
Unknown
Sunlit
N/A
Visualization observer readout
Local Sidereal Time
01:06:59
Azimuth
Unknown
Elevation
Unknown
Doppler factor
Unknown
Orbital elements
Apogee altitude
1,518.843 km
Perigee altitude
1,391.76 km
Semi-major axis
7,833.439 km
Eccentricity
0.00811
Inclination
101.9924°
RAAN
306.679°
Arg. of periapsis
127.9569°
True anomaly
257.46216°
Mean anomaly
258.3707°
Eccentric anomaly
257.91624°
Mean motion
3.13051 °/min
Orbital period
115 mins
BSTAR
0.0017577
Loading maneuver chart data...
Computing Atmospheric mass density...

Documentation

Showing up to 5 results
|